This is the latest recevied weather packets stored in our database for station/object N3AVN. If no packets are shown the sender has not sent any weather packets the latest 10 day(s).
| Time | Temp. | Humidity | Pressure | Rain* | Wind** | Luminosity | Snow |
|---|---|---|---|---|---|---|---|
| 1777579968 | 12.78° C | 90% | 1004.7 hPa | 0 mm | - | 73 W/m² | - |
| 1777579658 | 12.78° C | 90% | 1004.4 hPa | 0 mm | - | 84 W/m² | - |
| 1777579357 | 12.78° C | 90% | 1004.7 hPa | 0 mm | - | 70 W/m² | - |
| 1777579052 | 12.78° C | 89% | 1004.6 hPa | 0 mm | - | 70 W/m² | - |
| 1777578746 | 12.78° C | 88% | 1004.7 hPa | 0 mm | - | 50 W/m² | - |
| 1777578441 | 13.33° C | 89% | 1004.7 hPa | 0 mm | - | 50 W/m² | - |
| 1777578137 | 12.78° C | 88% | 1004.6 hPa | 0 mm | - | 49 W/m² | - |
| 1777577833 | 13.33° C | 90% | 1004.7 hPa | 0 mm | - | 57 W/m² | - |
| 1777577529 | 12.78° C | 89% | 1004.6 hPa | 0 mm | - | 57 W/m² | - |
| 1777577226 | 12.78° C | 90% | 1004.6 hPa | 0 mm | - | 65 W/m² | - |
| 1777576922 | 12.78° C | 91% | 1004.8 hPa | 0 mm | - | 61 W/m² | - |
| 1777576617 | 12.78° C | 91% | 1004.8 hPa | 0 mm | - | 76 W/m² | - |
| 1777576312 | 12.22° C | 91% | 1004.5 hPa | 0 mm | - | 70 W/m² | - |
| 1777576009 | 12.22° C | 91% | 1004.7 hPa | 0 mm | - | 51 W/m² | - |
| 1777575704 | 12.22° C | 91% | 1004.5 hPa | 0 mm | - | 50 W/m² | - |
| 1777575395 | 12.22° C | 91% | 1004.7 hPa | 0 mm | - | 66 W/m² | - |
| 1777575091 | 12.78° C | 91% | 1004.9 hPa | 0 mm | - | 83 W/m² | - |
| 1777574787 | 12.78° C | 91% | 1004.8 hPa | 0 mm | - | 82 W/m² | - |
| 1777574485 | 12.22° C | 91% | 1004.6 hPa | 0 mm | - | 79 W/m² | - |
| 1777574181 | 12.22° C | 91% | 1004.7 hPa | 0 mm | - | 81 W/m² | - |
| 1777573876 | 12.78° C | 91% | 1004.9 hPa | 0 mm | - | 81 W/m² | - |
| 1777573570 | 12.78° C | 92% | 1004.5 hPa | 0 mm | - | 97 W/m² | - |
| 1777573262 | 12.22° C | 92% | 1004.5 hPa | 0 mm | - | 146 W/m² | - |
| 1777572958 | 12.22° C | 93% | 1004.6 hPa | 0 mm | - | 180 W/m² | - |
| 1777572654 | 12.22° C | 93% | 1004.8 hPa | 0 mm | - | 119 W/m² | - |
* Rain latest hour (hover to see other rain measurements)
** Current wind speed in m/s (hover to see current wind gust speed)